MAS778 WMKK-VHHX

Flight info

Callsign MAS778
Flight time N/A
Altitude 35000
Route KIMAT2D KIMAT Y344 VPK L629 DOLOX/N0470F360 M771 DUDIS/K0870F360 M771 DOSUT/N0469F360 M771 DULOP/N0466F370 M771 DUMOL DUMOL13
Aircraft B38M/M-SDE1FGHILORVWXY/HB1

Departure

Time 2026-05-06 08:12
Airport Kuala Lumpur International Airport (WMKK)

Arrival

Time N/A
Airport Hong Kong International Airport Kai Tak (VHHX)
Time Latitude Longitude Altitude Speed Heading
2026-05-06 07:44 2.74902 101.71629 55 ft 0 kts 326°
2026-05-06 08:02 2.74888 101.71639 54 ft 3 kts 326°
2026-05-06 08:02 2.74873 101.71644 50 ft 3 kts 352°
2026-05-06 08:02 2.74869 101.71645 55 ft 3 kts
2026-05-06 08:03 2.74853 101.71639 53 ft 1 kts 58°
2026-05-06 08:03 2.74853 101.71638 53 ft 0 kts 58°
2026-05-06 08:06 2.74854 101.71641 52 ft 1 kts 66°
2026-05-06 08:06 2.74853 101.71644 53 ft 1 kts 91°
2026-05-06 08:06 2.74846 101.71660 56 ft 5 kts 112°
2026-05-06 08:07 2.74843 101.71686 53 ft 4 kts 82°
2026-05-06 08:07 2.74852 101.71708 54 ft 4 kts 60°
2026-05-06 08:07 2.74879 101.71746 55 ft 9 kts 54°
2026-05-06 08:07 2.74906 101.71800 56 ft 4 kts 95°
2026-05-06 08:08 2.74889 101.71826 54 ft 7 kts 131°
2026-05-06 08:08 2.74840 101.71864 55 ft 11 kts 148°
2026-05-06 08:08 2.74766 101.71912 53 ft 15 kts 146°
2026-05-06 08:08 2.74700 101.71957 57 ft 11 kts 146°
2026-05-06 08:09 2.74623 101.72009 51 ft 15 kts 146°
2026-05-06 08:09 2.74527 101.72074 58 ft 14 kts 146°
2026-05-06 08:09 2.74485 101.72105 58 ft 8 kts 142°
2026-05-06 08:09 2.74467 101.72141 54 ft 5 kts 94°
2026-05-06 08:10 2.74486 101.72175 55 ft 6 kts 41°
2026-05-06 08:10 2.74515 101.72182 58 ft 6 kts
2026-05-06 08:10 2.74570 101.72161 53 ft 10 kts 324°
2026-05-06 08:10 2.74640 101.72119 53 ft 10 kts 349°
2026-05-06 08:11 2.74691 101.72150 54 ft 11 kts 58°
2026-05-06 08:11 2.74752 101.72233 53 ft 15 kts 31°
2026-05-06 08:11 2.74806 101.72229 55 ft 14 kts 339°
2026-05-06 08:11 2.74889 101.72166 52 ft 19 kts 321°
2026-05-06 08:12 2.75059 101.72053 53 ft 55 kts 326°
2026-05-06 08:12 2.75566 101.71713 54 ft 118 kts 327°
2026-05-06 08:12 2.76393 101.71170 127 ft 161 kts 326°
2026-05-06 08:12 2.77680 101.70321 906 ft 167 kts 326°
2026-05-06 08:13 2.78328 101.69891 1309 ft 164 kts 326°
2026-05-06 08:13 2.79252 101.69278 1946 ft 156 kts 325°
2026-05-06 08:13 2.80253 101.68707 1990 ft 174 kts 331°
2026-05-06 08:13 2.81427 101.68275 2075 ft 191 kts 344°
2026-05-06 08:14 2.82757 101.67900 2148 ft 207 kts 342°
2026-05-06 08:14 2.84168 101.67428 2198 ft 222 kts 340°
2026-05-06 08:14 2.85694 101.66866 2450 ft 244 kts 339°